STARLINK-1337 (45582 NORAD) Tracking and Keplerian Element Data

This shows tracking and keplerian element data for the satellite.

Feedback or suggestion? Click here.




ElementValue
Catalog45582
NameSTARLINK-1337
Epoch Orbit1194
Epoch Day185.50001157
Epoch Year2020
RAAN47.1043
Inclination52.9988
Eccentricity0.0001342
Argument of Perigee61.2027
Mean Anonmoly152.2261
Mean Motion15.62758776
Decay Rate-0.00046969
L11 45582U 20025BD 20185.50001157 -.00046969 00000-0 -50995-3 0 9995
L22 45582 52.9988 47.1043 0001342 61.2027 152.2261 15.62758776 11942

Live tracking and technical data element details for STARLINK-1337 (NORAD 45582). STARLINK-1337 can be tracked NOW for your location showing map with azimuth and elevation plus other details from your city location.

Track the satellite on the map from your city or location and see movement details for azimuth, elevation, latitude, longitude, range, height, and movement on the map or in text.







IsCatalogInMostPopularTable: catalog: 45582, numindb: 22
Update: records affected: 1



GetName: 45582 STARLINK-1337

Hit Count: updated at: Fri, 03 Jul 2020 16:45:37 GMT